User: anonymous   Login
Location: Harbor Island
(32.3990°N, 80.4435°W)
Time: 13:02:28
(UTC-04:00)
Language:

Cosmos 1455 - Orbit

View from above orbital plane
View from above orbital plane
View from above satellite
View from above satellite

Ground track
Ground track

The orbit data is extracted from the following two-line orbital elements,

1 14032U 83037A   15184.83958075  .00002137  00000-0  11352-3 0  9993
2 14032 082.5179 071.5572 0017148 234.6490 170.4324 15.14663635753152
Epoch (UTC): 03 July 2015 20:08:59
Eccentricity: 0.0017148
inclination: 82.5179°
perigee height: 510 km
apogee height: 534 km
right ascension of ascending node: 71.5572°
argument of perigee: 234.6490°
revolutions per day: 15.14663635
mean anomaly at epoch: 170.4324°
orbit number at epoch: 75315

The dashed part of the orbit path shows where the satellite is in the earth's shadow,  

DLR